Change the Weather History Date:

Thursday, July 25, 2013

  Actual Average Record
Temperature  
Mean Temperature 84 °F -  
Max Temperature 102 °F 95 °F 110 °F (1975)
Min Temperature 66 °F 56 °F 49 °F (1984)
Cooling Degree Days 19    
Growing Degree Days 34 (Base 50)    
Moisture  
Dew Point 53 °F    
Average Humidity 39    
Maximum Humidity 63    
Minimum Humidity 19    
Precipitation  
Precipitation 0.00 in - - ()
Sea Level Pressure  
Sea Level Pressure 29.88 in    
Wind  
Wind Speed 5 mph (SSW)    
Max Wind Speed 14 mph    
Max Gust Speed 20 mph    
Visibility 10 miles    
Events      
Averages and records for this station are not official NWS values.
T = Trace of Precipitation, MM = Missing Value Source: NWS Daily Summary

Daily Weather History Graph

Daily Weather History Graph

Search for Another Location

Airport or City:

Trip Planner

Search our weather history database for the weather conditions in past years. The results will help you decide how hot, cold, wet, or windy it might be!

Date:

Astronomy

Jul. 25, 2013 Rise Set
Actual Time 6:04 AM PDT 8:23 PM PDT
Civil Twilight 5:34 AM PDT 8:53 PM PDT
Nautical Twilight 4:57 AM PDT 9:30 PM PDT
Astronomical Twilight 4:16 AM PDT 10:11 PM PDT
Moon 10:11 PM PDT (7/25) 9:36 AM PDT (7/25)
Length of Visible Light 15h 19m
Length of Day
14h 19m
Waning Gibbous, 87% of the Moon is Illuminated
Jul 25
Waning Gibbous
Jul 29
Last Quarter
Aug 6
New
Aug 14
First Quarter
Aug 20
Full

Hourly Weather History & Observations

Time (PDT) Temp. Heat Index Dew Point Humidity Pressure Visibility Wind Dir Wind Speed Gust Speed Precip Events Conditions
12:53 AM 73.9 °F - 51.1 °F 45% 29.85 in 10.0 mi South 3.5 mph - N/A   Clear
1:53 AM 72.0 °F - 51.1 °F 48% 29.84 in 10.0 mi SSW 3.5 mph - N/A   Clear
2:53 AM 70.0 °F - 52.0 °F 53% 29.85 in 10.0 mi SW 5.8 mph - N/A   Clear
3:53 AM 68.0 °F - 53.1 °F 59% 29.86 in 10.0 mi Calm Calm - N/A   Clear
4:53 AM 66.9 °F - 54.0 °F 63% 29.87 in 10.0 mi Calm Calm - N/A   Clear
5:53 AM 66.9 °F - 53.1 °F 61% 29.87 in 10.0 mi SW 4.6 mph - N/A   Clear
6:53 AM 66.9 °F - 53.1 °F 61% 29.89 in 10.0 mi SSW 3.5 mph - N/A   Clear
7:53 AM 71.1 °F - 53.1 °F 53% 29.91 in 10.0 mi SW 4.6 mph - N/A   Clear
8:53 AM 75.9 °F - 54.0 °F 46% 29.92 in 10.0 mi Calm Calm - N/A   Clear
9:53 AM 81.0 °F 80.7 °F 55.0 °F 41% 29.93 in 10.0 mi Calm Calm - N/A   Clear
10:53 AM 84.0 °F 83.0 °F 55.9 °F 38% 29.93 in 10.0 mi SSE 5.8 mph - N/A   Clear
11:53 AM 89.1 °F 87.7 °F 57.0 °F 34% 29.93 in 10.0 mi South 5.8 mph - N/A   Clear
12:53 PM 93.9 °F 92.2 °F 55.9 °F 28% 29.91 in 10.0 mi SSW 8.1 mph - N/A   Clear
1:53 PM 96.1 °F 94.1 °F 55.0 °F 25% 29.89 in 10.0 mi South 9.2 mph 16.1 mph N/A   Clear
2:53 PM 98.1 °F 96.8 °F 57.0 °F 25% 29.87 in 10.0 mi South 10.4 mph - N/A   Clear
3:53 PM 100.9 °F 99.6 °F 55.0 °F 22% 29.85 in 10.0 mi WSW 13.8 mph 19.6 mph N/A   Clear
4:53 PM 102.0 °F - 52.0 °F 19% 29.85 in 10.0 mi SW 11.5 mph 19.6 mph N/A   Clear
5:53 PM 98.1 °F 95.7 °F 53.1 °F 22% 29.86 in 10.0 mi SW 10.4 mph - N/A   Clear
6:53 PM 91.9 °F 89.5 °F 53.1 °F 27% 29.86 in 10.0 mi SW 9.2 mph - N/A   Clear
7:53 PM 88.0 °F - 50.0 °F 27% 29.87 in 10.0 mi South 8.1 mph - N/A   Clear
8:53 PM 84.9 °F - 48.9 °F 29% 29.88 in 10.0 mi SSW 10.4 mph - N/A   Clear
9:53 PM 82.9 °F - 48.9 °F 31% 29.90 in 10.0 mi South 4.6 mph - N/A   Clear
10:53 PM 77.0 °F - 51.1 °F 40% 29.90 in 10.0 mi Calm Calm - N/A   Clear
11:53 PM 71.1 °F - 50.0 °F 47% 29.91 in 10.0 mi Calm Calm - N/A   Clear